This is the latest recevied weather packets stored in our database for station/object N3TJJ-11. If no packets are shown the sender has not sent any weather packets the latest 10 day(s).
| Time | Temp. | Humidity | Pressure | Rain* | Wind** | Luminosity | Snow |
|---|---|---|---|---|---|---|---|
| 1777142047 | 8.89° C | 84% | 1011.2 hPa | 0.51 mm | - | - | - |
| 1777141445 | 8.89° C | 84% | 1010.8 hPa | 0.51 mm | - | - | - |
| 1777140846 | 9.44° C | 83% | 1012.3 hPa | 0.51 mm | - | - | - |
| 1777140725 | 9.44° C | 84% | 1012.2 hPa | 0.51 mm | - | - | - |
| 1777140249 | 9.44° C | 84% | 1011.5 hPa | 0.51 mm | - | - | - |
| 1777140005 | 9.44° C | 84% | 1011.7 hPa | 0.51 mm | - | - | - |
| 1777139647 | 9.44° C | 85% | 1011.5 hPa | 0.51 mm | - | - | - |
| 1777139285 | 9.44° C | 84% | 1011.4 hPa | 0.51 mm | - | - | - |
| 1777139046 | 9.44° C | 84% | 1011.7 hPa | 0.51 mm | - | - | - |
| 1777138565 | 10° C | 82% | 1011.7 hPa | 0.25 mm | - | - | - |
| 1777138450 | 10° C | 82% | 1011.9 hPa | 0.25 mm | - | - | - |
| 1777137845 | 10.56° C | 78% | 1012.1 hPa | 0.25 mm | - | - | - |
| 1777137247 | 10.56° C | 73% | 1011.8 hPa | 0 mm | - | - | - |
| 1777137125 | 10.56° C | 73% | 1011.9 hPa | 0 mm | - | - | - |
| 1777136649 | 10.56° C | 76% | 1011.5 hPa | 0 mm | - | - | - |
| 1777136405 | 10.56° C | 77% | 1011.5 hPa | 0 mm | - | - | - |
| 1777136046 | 10.56° C | 77% | 1011.2 hPa | 0 mm | - | - | - |
| 1777135685 | 11.11° C | 77% | 1011.2 hPa | 0 mm | - | - | - |
| 1777135446 | 11.11° C | 78% | 1011.2 hPa | 0 mm | - | - | - |
| 1777134965 | 11.11° C | 78% | 1011.2 hPa | 0 mm | - | - | - |
| 1777134858 | 11.11° C | 79% | 1011.2 hPa | 0 mm | - | - | - |
| 1777134245 | 11.11° C | 79% | 1011.4 hPa | 0 mm | - | - | - |
| 1777133646 | 11.11° C | 78% | 1011.5 hPa | 0 mm | - | - | - |
| 1777133525 | 11.11° C | 78% | 1011.5 hPa | 0 mm | - | - | - |
| 1777133052 | 10.56° C | 79% | 1011.3 hPa | 0 mm | - | - | - |
* Rain latest hour (hover to see other rain measurements)
** Current wind speed in m/s (hover to see current wind gust speed)